Regional Weather Roundup
Issued by NWS

Home | Current Version | Previous Version | Text Only | Print | Product List | Glossary On
Versions: 1 2 3 4 5 6 7 8 9 10 11 12 13 14 15 16 17 18 19 20 21 22 23 24 25 26 27
000
ASUS46 KPQR 200210
RWROR

OREGON REGIONAL WEATHER ROUNDUP
NATIONAL WEATHER SERVICE PORTLAND OR
700 PM PDT SAT AUG 19 2017

NOTE: "FAIR" INDICATES FEW OR NO CLOUDS BELOW 12,000 FEET WITH
NO SIGNIFICANT WEATHER AND/OR OBSTRUCTIONS TO VISIBILITY.

ORZ001>013-200300-
NORTHWEST OREGON


CITY           SKY/WX    TMP DP  RH WIND       PRES   REMARKS
ASTORIA        MOSUNNY   63  52  67 NW13G23   30.19S
NEWPORT        SUNNY     61  52  72 N18G26    30.17S
PORTLAND       MOSUNNY   75  53  46 N10G18    30.09S
VANCOUVER WA   SUNNY     75  54  47 NW13      30.08F
SCAPPOOSE      SUNNY     75  52  44 NW9       30.08F
HILLSBORO      SUNNY     73  53  49 NW13      30.09S
AURORA         SUNNY     79  50  36 NW9       30.09S
MCMINNVILLE    SUNNY     78  51  38 N17       30.09S
SALEM          SUNNY     79  47  32 N10       30.06F
CORVALLIS      SUNNY     75  52  43 NW6       30.09S
EUGENE         MOSUNNY   78  47  33 N16       30.06S
$$

ORZ021-028-200300-
SOUTHWEST OREGON


CITY           SKY/WX    TMP DP  RH WIND       PRES   REMARKS
NORTH BEND     SUNNY     60  52  74 N30G37    30.10F
BROOKINGS      CLOUDY    73  52  47 NW12      29.89S
ROSEBURG       SUNNY     82  35  18 N21G26    30.02S
SEXTON SUMMIT  SUNNY     65  34  31 N8        30.09S
GRANTS PASS    FAIR      82  34  17 N16       30.02S
MEDFORD        PTSUNNY   83  45  26 N10       29.96S
$$

ORZ014>016-041-200300-
COLUMBIA GORGE


CITY           SKY/WX    TMP DP  RH WIND       PRES   REMARKS
TROUTDALE      SUNNY     77  52  41 NW10G17   30.07S
HOOD RIVER     SUNNY     77  52  41 W6G20     30.02R
THE DALLES     SUNNY     82  52  35 NW15G25   29.97S
$$

ORZ029>031-041-044-049-050-061>064-502-503-505>511-200300-
EASTERN OREGON


CITY           SKY/WX    TMP DP  RH WIND       PRES   REMARKS
MADRAS         SUNNY     77  37  24 N8        30.06F
REDMOND        SUNNY     79  32  18 N10       30.07S
BEND           SUNNY     77  36  22 N10       30.10S
PRINEVILLE     CLEAR     75  36  23 N12       30.08S
KLAMATH FALLS  SUNNY     80  41  24 NW14      30.03S SMOKE
LAKEVIEW       CLEAR    N/A N/A N/A N10       30.06S
HERMISTON      CLEAR     82  46  28 CALM      29.97F
PENDLETON      CLEAR     78  36  21 N7        30.01S
JOHN DAY       CLEAR     77  36  22 NW9       30.06S
MEACHAM        CLEAR     67  35  30 VRB3      30.11S
LA GRANDE      NOT AVBL
BAKER CITY     CLEAR     74  38  27 NW17G25   30.04S
BURNS          CLEAR     77  33  20 N13       30.04S
ROME             N/A     85  31  14 N15       29.99S
ONTARIO        CLEAR     85  37  18 N7        29.91S
$$




USA.gov is the U.S. government's official web portal to all federal, state and local government web resources and services.